Left ArrowRight Arrow

38.83388, -104.82136

Hourly Observations for June 19, 2024

Temp ( °F °C ) Dew Point ( °F °C ) Humidity (%) Winds ( mph kmh ) Pressure ( in mb ) Visibility ( mi km ) Precip ( " mm )
12:55 am 00:55 Cloudy 56 13.6 26 -3.2 31 31 NW 9 15 29.71 1006 10 16 0.00 0.00
1:55 am 01:55 Cloudy 56 13.3 28 -2.2 34 34 NNW 7 11 29.71 1006 10 16 0.00 0.00
2:55 am 02:55 Cloudy 55 12.9 29 -1.4 37 37 NNW 8 13 29.71 1006 10 16 0.00 0.00
3:55 am 03:55 Cloudy 56 13.3 31 -0.4 39 39 W 3 6 29.72 1006 10 16 0.00 0.00
4:55 am 04:55 Cloudy 55 12.6 31 -0.6 40 40 S 6 9 29.77 1008 10 16 0.00 0.00
5:55 am 05:55 Cloudy 53 11.8 36 2 51 51 Calm 29.81 1010 10 16 0.00 0.00
6:55 am 06:55 Cloudy 51 10.6 40 4.3 65 65 S 5 7 29.85 1011 10 16 0.00 0.00
7:13 am 07:13 Cloudy with Light Rain 50 10 41 5 71 71 SE 7 11 29.88 1012 9 14 0.00 0.00
7:55 am 07:55 Cloudy with Drizzle 49 9.3 45 7.2 87 87 Calm 29.89 1012 7 11 0.01 0.13
8:10 am 08:10 Cloudy with Drizzle 50 10 46 8 87 87 Calm 29.89 1012 5 8 0.00 0.00
8:30 am 08:30 Cloudy with Drizzle 50 10 48 9 93 93 ENE 3 6 29.89 1012 10 16 0.00 0.00
8:55 am 08:55 Cloudy with Light Rain 48 9 46 7.9 93 93 Calm 29.91 1013 3 5 0.02 0.51
9:05 am 09:05 Cloudy with Drizzle 48 9 46 8 93 93 WSW 3 6 29.91 1013 5 8 0.00 0.00
9:25 am 09:25 Cloudy with Drizzle 48 9 46 8 93 93 SSW 7 11 29.93 1013 5 8 0.00 0.00
9:55 am 09:55 Cloudy with Drizzle 49 9.5 47 8.3 92 92 SSW 5 7 29.90 1012 5 8 0.02 0.51
10:12 am 10:12 Cloudy 50 10 50 10 100 100 SE 6 9 29.90 1012 10 16 0.00 0.00
10:27 am 10:27 Cloudy 50 10 48 9 93 93 SSE 6 9 29.90 1012 10 16 0.00 0.00
10:41 am 10:41 Cloudy with Light Rain 50 10 48 9 93 93 SSE 8 13 29.91 1013 9 14 0.00 0.00
10:55 am 10:55 Cloudy with Drizzle 49 9.7 49 9.2 97 97 SSE 7 11 29.91 1013 10 16 0.01 0.13
11:01 am 11:01 Cloudy 50 10 50 10 100 100 SSE 9 15 29.91 1013 10 16 0.00 0.00
11:15 am 11:15 Cloudy with Light Rain 50 10 50 10 100 100 SE 6 9 29.91 1013 8 13 0.00 0.00
11:31 am 11:31 Cloudy 50 10 48 9 93 93 SSE 7 11 29.91 1013 8 13 0.00 0.00
11:42 am 11:42 Cloudy with Light Rain 50 10 50 10 100 100 SSE 8 13 29.91 1013 5 8 0.00 0.00
11:55 am 11:55 Cloudy with Drizzle 51 10.4 50 10.1 98 98 SSE 8 13 29.91 1013 9 14 0.01 0.13
11:57 am 11:57 Cloudy 52 11 50 10 94 94 SE 7 11 29.91 1013 10 16 0.00 0.00
12:12 pm 12:12 Cloudy with Light Rain 50 10 50 10 100 100 SSE 6 9 29.91 1013 8 13 0.00 0.00
12:27 pm 12:27 Cloudy with Light Rain 52 11 50 10 94 94 SE 12 19 29.91 1013 1 2 0.00 0.00
12:32 pm 12:32 Cloudy with Light Rain 50 10 50 10 100 100 ESE 9 15 29.91 1013 0 0 0.00 0.00
12:55 pm 12:55 Cloudy with Light Rain 51 10.3 50 10 98 98 SE 10 17 29.89 1012 0 0 0.01 0.13
1:05 pm 13:05 Cloudy with Fog 50 10 50 10 100 100 SE 10 17 29.88 1012 0 0 0.00 0.00
1:55 pm 13:55 Cloudy with Mist and Fog 51 10.3 50 10.1 99 99 SE 13 20 29.86 1011 2 2 0.01 0.13
2:00 pm 14:00 Cloudy with Mist and Fog 50 10 50 10 100 100 SSE 13 20 29.86 1011 3 4 0.00 0.00
2:15 pm 14:15 Cloudy with Mist and Fog 52 11 50 10 94 94 SSE 12 19 29.86 1011 3 5 0.00 0.00
2:55 pm 14:55 Cloudy 51 10.5 50 10.2 98 98 SE 15 24 29.85 1011 9 14 0.00 0.00
3:55 pm 15:55 Cloudy with Light Rain 52 11 51 10.7 98 98 SSE 12 19 29.84 1011 2 4 0.01 0.13
4:00 pm 16:00 Cloudy with Light Rain 52 11 52 11 100 100 SSE 12 19 29.84 1011 1 1 0.00 0.00
4:55 pm 16:55 Cloudy with Light Rain 52 10.9 51 10.7 99 99 SSE 13 20 29.82 1010 0 1 0.01 0.25
5:15 pm 17:15 Cloudy with Drizzle 52 11 52 11 100 100 SSE 12 19 29.83 1010 1 2 0.00 0.00
5:20 pm 17:20 Cloudy with Drizzle 52 11 52 11 100 100 SE 12 19 29.83 1010 1 1 0.00 0.00
5:45 pm 17:45 Cloudy with Light Rain 52 11 52 11 100 100 SE 12 19 29.84 1011 0 0 0.00 0.00
5:55 pm 17:55 Cloudy with Light Rain 52 11 51 10.8 99 99 SSE 8 13 29.85 1011 0 0 0.01 0.13
6:55 pm 18:55 Cloudy with Light Rain 52 11.1 52 10.9 99 99 SE 7 11 29.86 1011 0 0 0.01 0.25
7:50 pm 19:50 Cloudy with Light Rain 54 12 52 11 94 94 SSW 9 15 29.87 1012 1 2 0.00 0.00
7:55 pm 19:55 Cloudy with Light Rain 53 11.6 53 11.4 99 99 S 6 9 29.88 1012 2 3 0.04 1.02
8:00 pm 20:00 Cloudy with Light Rain 52 11 52 11 100 100 S 7 11 29.90 1012 2 3 0.00 0.00
8:05 pm 20:05 Cloudy with Light Rain 54 12 54 12 100 100 SE 6 9 29.88 1012 4 6 0.00 0.00
8:15 pm 20:15 Cloudy with Light Rain 54 12 54 12 100 100 S 7 11 29.87 1012 1 2 0.00 0.00
8:25 pm 20:25 Cloudy with Light Rain 54 12 52 11 94 94 S 7 11 29.87 1012 3 4 0.00 0.00
8:30 pm 20:30 Cloudy with Light Rain 54 12 54 12 100 100 SSE 7 11 29.87 1012 5 8 0.00 0.00
8:50 pm 20:50 Cloudy with Drizzle 54 12 54 12 100 100 ESE 5 7 29.88 1012 1 1 0.00 0.00
8:55 pm 20:55 Cloudy with Light Rain 53 11.9 53 11.7 99 99 SSE 3 6 29.88 1012 1 1 0.01 0.13
9:05 pm 21:05 Cloudy with Light Rain 55 13 54 12 94 94 SSE 5 7 29.88 1012 6 10 0.00 0.00
9:35 pm 21:35 Cloudy with Drizzle 54 12 54 12 100 100 ESE 3 6 29.90 1013 1 1 0.00 0.00
9:55 pm 21:55 Cloudy with Light Rain 54 12.2 54 12 99 99 Calm 29.90 1013 0 0 0.01 0.25
10:15 pm 22:15 Cloudy with Light Rain 55 13 54 12 94 94 SSE 8 13 29.88 1012 4 6 0.00 0.00
10:21 pm 22:21 Cloudy 55 13 55 13 100 100 SSE 10 17 29.88 1012 7 11 0.00 0.00
10:36 pm 22:36 Cloudy with Mist and Fog 55 13 55 13 100 100 S 8 13 29.90 1013 2 3 0.00 0.00
10:41 pm 22:41 Cloudy with Mist and Fog 55 13 55 13 100 100 SSE 9 15 29.90 1013 5 8 0.00 0.00
10:55 pm 22:55 Cloudy 57 14.1 55 12.8 92 92 S 13 20 29.87 1012 10 16 0.01 0.25
11:20 pm 23:20 Cloudy with Fog 54 12 54 12 100 100 Calm 29.90 1013 0 0 0.00 0.00
11:55 pm 23:55 Cloudy with Mist and Fog 55 12.9 55 12.7 99 99 SSE 9 15 29.88 1012 1 1 0.00 0.00

Powered by Vaisala Xweather